TimeCDT,TemperatureF,Dew PointF,Humidity,Sea Level PressureIn,VisibilityMPH,Wind Direction,Wind SpeedMPH,Gust SpeedMPH,PrecipitationIn,Events,Conditions,WindDirDegrees,DateUTC
12:53 AM,70.0,66.9,90,30.14,8.0,Calm,Calm,-,N/A,,Clear,0,2012-10-05 05:53:00
1:53 AM,69.1,66.0,90,30.14,6.0,Calm,Calm,-,N/A,,Clear,0,2012-10-05 06:53:00
2:53 AM,68.0,66.2,94,30.13,7.0,Calm,Calm,-,N/A,,Clear,0,2012-10-05 07:53:00
3:53 AM,68.0,64.9,90,30.12,9.0,Calm,Calm,-,N/A,,Clear,0,2012-10-05 08:53:00
4:33 AM,68.0,66.2,94,30.12,2.0,Calm,Calm,-,N/A,,Clear,0,2012-10-05 09:33:00
4:45 AM,66.2,66.2,100,30.12,3.0,Calm,Calm,-,N/A,,Clear,0,2012-10-05 09:45:00
4:53 AM,66.0,64.0,93,30.12,7.0,Calm,Calm,-,N/A,,Clear,0,2012-10-05 09:53:00
5:25 AM,66.2,64.4,94,30.12,3.0,Calm,Calm,-,N/A,,Scattered Clouds,0,2012-10-05 10:25:00
5:30 AM,66.2,64.4,94,30.13,2.5,Calm,Calm,-,N/A,,Mostly Cloudy,0,2012-10-05 10:30:00
5:34 AM,66.2,64.4,94,30.13,0.8,Calm,Calm,-,N/A,,Mist,0,2012-10-05 10:34:00
5:37 AM,66.2,64.4,94,30.13,0.2,Calm,Calm,-,N/A,Fog,Fog,0,2012-10-05 10:37:00
5:53 AM,66.0,64.9,96,30.13,0.2,Calm,Calm,-,N/A,Fog,Fog,0,2012-10-05 10:53:00
6:53 AM,64.9,64.0,97,30.14,0.2,Calm,Calm,-,N/A,Fog,Fog,0,2012-10-05 11:53:00
7:53 AM,66.9,64.9,93,30.14,0.2,Calm,Calm,-,N/A,Fog,Fog,0,2012-10-05 12:53:00
8:53 AM,68.0,66.9,96,30.15,0.2,Calm,Calm,-,N/A,Fog,Fog,0,2012-10-05 13:53:00
9:53 AM,71.1,70.0,96,30.15,0.2,Calm,Calm,-,N/A,Fog,Fog,0,2012-10-05 14:53:00
10:02 AM,71.6,71.6,100,30.15,0.8,NE,3.5,-,N/A,,Mist,50,2012-10-05 15:02:00
10:04 AM,71.6,71.6,100,30.15,0.8,Calm,Calm,-,N/A,,Mist,0,2012-10-05 15:04:00
10:11 AM,71.6,71.6,100,30.15,1.8,Calm,Calm,-,N/A,,Overcast,0,2012-10-05 15:11:00
10:17 AM,73.4,71.6,94,30.15,3.0,Calm,Calm,-,N/A,,Overcast,0,2012-10-05 15:17:00
10:36 AM,77.0,71.6,83,30.15,10.0,Calm,Calm,-,N/A,,Overcast,0,2012-10-05 15:36:00
10:53 AM,78.1,71.1,79,30.14,10.0,Calm,Calm,-,N/A,,Scattered Clouds,0,2012-10-05 15:53:00
11:53 AM,81.0,66.0,60,30.13,10.0,Calm,Calm,-,N/A,,Clear,0,2012-10-05 16:53:00
12:53 PM,84.0,64.0,51,30.10,10.0,Variable,3.5,-,N/A,,Clear,0,2012-10-05 17:53:00
1:53 PM,84.9,63.0,48,30.07,10.0,South,5.8,-,N/A,,Clear,180,2012-10-05 18:53:00
2:53 PM,84.9,61.0,44,30.04,10.0,Calm,Calm,-,N/A,,Clear,0,2012-10-05 19:53:00
3:53 PM,86.0,63.0,46,30.02,10.0,ENE,3.5,-,N/A,,Mostly Cloudy,70,2012-10-05 20:53:00
4:53 PM,84.9,64.0,49,30.01,10.0,Calm,Calm,-,N/A,,Scattered Clouds,0,2012-10-05 21:53:00
5:53 PM,82.9,64.9,54,30.00,9.0,SE,3.5,-,N/A,,Clear,130,2012-10-05 22:53:00
6:53 PM,79.0,61.0,54,30.01,10.0,SW,3.5,-,N/A,,Clear,230,2012-10-05 23:53:00
7:53 PM,73.0,68.0,84,30.01,10.0,Calm,Calm,-,N/A,,Clear,0,2012-10-06 00:53:00
8:53 PM,72.0,66.9,84,30.02,10.0,Calm,Calm,-,N/A,,Clear,0,2012-10-06 01:53:00
9:53 PM,71.1,66.9,87,30.03,10.0,Calm,Calm,-,N/A,,Clear,0,2012-10-06 02:53:00
10:53 PM,70.0,66.0,87,30.03,10.0,Calm,Calm,-,N/A,,Clear,0,2012-10-06 03:53:00
11:53 PM,71.1,64.9,81,30.02,10.0,Calm,Calm,-,N/A,,Clear,0,2012-10-06 04:53:00